[[{"header":{"parameterUnit":"m.s-1","parameterCategory":1,"la1":30.2992,"la2":30.254,"lo1":-89.0895,"lo2":-89.0443,"dy":0.0025,"dx":0.0025,"nx":19,"ny":19,"refTime":"2026-04-19T21:00:00:Z","depth":0,"parameterNumber":2,"parameterNumberName":"U-component_of_WINDS"},"data":[0,0,0,-4.3326,-4.333,-4.3473,-4.3473,-4.3675,-4.3677,0,0,0,0,0,0,0,0,0,0,0,-4.3296,-4.3298,-4.3326,-4.333,-4.3473,-4.3473,-4.3674,-4.3677,0,0,0,0,0,0,0,0,0,0,0,-4.3295,-4.3297,-4.33,-4.3331,-4.3473,-4.3473,-4.3674,-4.3559,0,0,0,0,0,0,0,0,0,0,-4.3417,-4.3402,-4.3297,-4.33,-4.3331,-4.3473,-4.3473,-4.3553,-4.3566,-4.3618,0,-4.3668,0,-4.3676,-4.3691,-4.3692,0,0,0,-4.3321,-4.3391,-4.3418,-4.33,-4.3333,-4.3473,-4.3406,-4.356,-4.3575,-4.3635,-4.3671,-4.3678,-4.3679,-4.3693,-4.3694,-4.4026,-4.4028,0,0,-4.3313,-4.3329,-4.3408,-4.3428,-4.3409,-4.3401,-4.341,-4.3569,-4.3609,-4.3672,-4.3682,-4.3683,-4.3694,-4.3696,-4.4024,-4.4026,0,0,0,-4.3296,-4.3324,-4.3346,-4.3421,-4.3445,-4.3406,-4.3416,-4.3601,-4.3608,-4.3684,-4.3685,-4.3696,-4.3698,-4.4022,-4.4025,-4.4141,0,0,0,-4.3291,-4.3314,-4.3344,-4.3355,-4.3443,-4.3525,-4.3445,-4.3597,-4.3614,-4.3684,-4.3696,-4.37,-4.4019,-4.4023,-4.4133,-4.4194,0,0,0,-4.3283,-4.3313,-4.3338,-4.3355,-4.3417,-4.3522,-4.3537,-4.36,-4.3615,-4.3692,-4.3701,-4.4018,-4.4023,-4.4126,-4.4182,-4.4288,0,0,0,-4.3278,-4.3438,-4.334,-4.3517,-4.3416,-4.3592,-4.3536,-4.3666,-4.3746,-4.3697,-4.402,-4.4024,-4.4123,-4.4175,-4.428,-4.4382,-4.4425,0,0,-4.3488,-4.3463,-4.3567,-4.3483,-4.3681,-4.3569,-4.3783,-4.3841,-4.3833,-4.3962,-4.3969,-4.4135,-4.4181,-4.4286,-4.4654,-4.4689,0,0,0,-4.3639,-4.3714,-4.3762,-4.384,-4.3887,-4.3934,-4.3957,-4.3978,-4.4086,-4.3903,-4.4199,-4.4226,-4.4287,-4.4335,-4.4365,-4.4417,-4.4046,-4.4046,-4.4045,-4.3962,-4.3943,-4.4113,-4.4111,-4.4186,-4.4208,-4.4267,-4.4299,-4.4257,-4.4327,-4.4367,-4.4593,-4.465,-4.4671,-4.4726,-4.4416,-4.4416,-4.4417,-4.4417,-4.427,-4.4375,-4.4314,-4.4459,-4.4437,-4.4557,-4.4583,-4.4549,-4.4658,-4.4561,-4.4614,-4.4514,-4.471,-4.4756,-4.4426,-4.4424,-4.4423,-4.4422,-4.4422,-4.4483,-4.453,-4.4552,-4.4661,-4.4747,-4.4738,-4.4845,-4.482,-4.4798,-4.4849,-4.489,-4.4888,-4.4885,-4.4869,-4.487,-4.4871,-4.4872,-4.4872,-4.4873,-4.4697,-4.4718,-4.4812,-4.4875,-4.4921,-4.4978,-4.4999,-4.5043,-4.5086,-4.5059,-4.5059,-4.5013,-4.4731,-4.4663,-4.4885,-4.4883,-4.4881,-4.488,-4.4879,-4.5024,-4.4945,-4.5091,-4.5138,-4.5209,-4.5296,-4.5261,-4.5353,-4.5385,-4.5439,-4.5379,-4.5174,-4.5147,-4.5124,-4.5067,-4.5381,-4.5381,-4.5381,-4.5381,-4.5207,-4.5189,-4.5333,-4.5408,-4.5478,-4.5461,-4.5626,-4.5643,-4.5647,-4.5666,-4.5616,-4.5537,-4.5514,-4.5501,-4.547,-4.5417,-4.5813,-4.5813,-4.5813,-4.5408,-4.5396,-4.5543,-4.5546,-4.5599,-4.5645,-4.58,-4.5888,-4.5876,-4.583,-4.5681,-4.5663,-4.5536,-4.5495,-4.5451,-4.5403,-4.5305,0,0]},{"header":{"parameterUnit":"m.s-1","parameterCategory":1,"la1":30.2992,"la2":30.254,"lo1":-89.0895,"lo2":-89.0443,"dy":0.0025,"dx":0.0025,"nx":19,"ny":19,"refTime":"2026-04-19T21:00:00:Z","depth":0,"parameterNumber":3,"parameterNumberName":"V-component_of_WINDS"},"data":[0,0,0,-7.9555,-7.9558,-7.9675,-7.9675,-7.9833,-7.9835,0,0,0,0,0,0,0,0,0,0,0,-7.9529,-7.953,-7.9555,-7.9558,-7.9675,-7.9675,-7.9833,-7.9835,0,0,0,0,0,0,0,0,0,0,0,-7.9528,-7.953,-7.9532,-7.9559,-7.9675,-7.9676,-7.9833,-7.974,0,0,0,0,0,0,0,0,0,0,-7.9625,-7.961,-7.953,-7.9532,-7.9559,-7.9675,-7.9676,-7.9736,-7.9746,-7.9785,0,-7.9825,0,-7.9833,-7.9846,-7.9847,0,0,0,-7.9551,-7.9602,-7.9626,-7.9532,-7.9561,-7.9675,-7.962,-7.9742,-7.9753,-7.9799,-7.9827,-7.9832,-7.9835,-7.9847,-7.9848,-8.0103,-8.0104,0,0,-7.9544,-7.9554,-7.9618,-7.9634,-7.962,-7.9617,-7.9624,-7.9748,-7.9778,-7.9827,-7.9836,-7.9838,-7.9848,-7.985,-8.0102,-8.0103,0,0,0,-7.9531,-7.9549,-7.957,-7.9628,-7.9649,-7.962,-7.9629,-7.9773,-7.9779,-7.9837,-7.984,-7.9849,-7.9852,-8.01,-8.0102,-8.0189,0,0,0,-7.9526,-7.9541,-7.9568,-7.9575,-7.9647,-7.9713,-7.965,-7.977,-7.9784,-7.9839,-7.9849,-7.9853,-8.0098,-8.0101,-8.0183,-8.0227,0,0,0,-7.9518,-7.954,-7.9561,-7.9575,-7.9626,-7.9711,-7.9724,-7.9773,-7.9786,-7.9847,-7.9854,-8.0097,-8.0101,-8.0177,-8.0219,-8.0298,0,0,0,-7.9511,-7.9634,-7.9562,-7.97,-7.9625,-7.9764,-7.9723,-7.9825,-7.9888,-7.985,-8.0098,-8.0102,-8.0176,-8.0213,-8.0292,-8.0366,-8.0398,0,0,-7.9671,-7.9654,-7.9734,-7.9673,-7.9828,-7.9746,-7.9912,-7.9958,-7.9953,-8.0052,-8.0059,-8.0185,-8.0218,-8.0297,-8.0574,-8.06,0,0,0,-7.9788,-7.9846,-7.9885,-7.9947,-7.9987,-8.0025,-8.0046,-8.0063,-8.0147,-8.0008,-8.0234,-8.0254,-8.0299,-8.0334,-8.0356,-8.0394,-8.0119,-8.0118,-8.0118,-8.0027,-8.0017,-8.0149,-8.0154,-8.0213,-8.0234,-8.0281,-8.0307,-8.0277,-8.0331,-8.036,-8.053,-8.0572,-8.0588,-8.0628,-8.0398,-8.0399,-8.0399,-8.0399,-8.0261,-8.0341,-8.0301,-8.0414,-8.0402,-8.0495,-8.0519,-8.0495,-8.0578,-8.0507,-8.0546,-8.0469,-8.0616,-8.065,-8.0405,-8.0404,-8.0404,-8.0403,-8.0402,-8.0417,-8.0454,-8.0474,-8.0563,-8.0631,-8.0629,-8.0713,-8.0697,-8.0682,-8.0722,-8.0751,-8.0749,-8.0745,-8.0737,-8.0737,-8.0738,-8.0738,-8.0739,-8.0739,-8.0571,-8.0591,-8.0665,-8.0719,-8.0757,-8.0804,-8.0825,-8.086,-8.0895,-8.0877,-8.0877,-8.0841,-8.0633,-8.0581,-8.0748,-8.0747,-8.0745,-8.0745,-8.0744,-8.0812,-8.0755,-8.0869,-8.0907,-8.0969,-8.1037,-8.1017,-8.109,-8.1116,-8.1157,-8.1113,-8.0962,-8.0941,-8.0924,-8.0881,-8.1116,-8.1116,-8.1116,-8.1116,-8.0944,-8.0933,-8.1046,-8.1108,-8.1165,-8.1159,-8.1285,-8.1302,-8.131,-8.1325,-8.1288,-8.123,-8.1213,-8.1202,-8.1179,-8.1138,-8.1433,-8.1434,-8.1434,-8.1091,-8.1085,-8.1198,-8.1208,-8.1254,-8.1294,-8.1412,-8.1481,-8.1477,-8.1447,-8.1336,-8.1323,-8.1228,-8.1198,-8.1164,-8.1128,-8.1053,0,0]}]]